Station 46001 (LLNR 984) - WESTERN GULF OF ALASKA - 175NM SE of Kodiak, AK Image indicating link to RSS feed of recent meteorological observations for station 46001


Conditions at 46001 as of
(11:50 am HAST)
2150 GMT on 04/17/2024:
     

Click on the graph icon in the table below to see a time series plot of the last five days of that observation.

5-day plot - Wind Direction Wind Direction (WDIR):ESE ( 120 deg true )
5-day plot - Wind Speed Wind Speed (WSPD): 29.1 kts
5-day plot - Wind Gust Wind Gust (GST): 38.9 kts
5-day plot - Wave Height Wave Height (WVHT): 20.0 ft
5-day plot - Dominant Wave Period Dominant Wave Period (DPD): 11 sec
5-day plot - Average Wave Period Average Period (APD): 8.7 sec
5-day plot - Mean Wave Direction Mean Wave Direction (MWD): SE ( 145 deg true )
5-day plot - Atmospheric Pressure Atmospheric Pressure (PRES):29.86 in
5-day plot - Air Temperature Air Temperature (ATMP): 41.9 °F
5-day plot - Water Temperature Water Temperature (WTMP): 40.1 °F
5-day plot - Dew Point Dew Point (DEWP): 40.6 °F
5-day plot - Wind Chill Wind Chill (CHILL): 30.6 °F
5-day plot - Wind Speed at 10 Meters Wind Speed at 10 meters (WSPD10M): 33.0 kts
5-day plot - Wind Speed at 20 Meters Wind Speed at 20 meters (WSPD20M): 35.0 kts
5-day plot -  Wind Speed, Wind Gust and Atmospheric Pressure Combined plot of Wind Speed, Gust, and Air Pressure
Supplemental Measurements
Highest 1-minute Wind Speed
Time (HAST)5-day plot - 1-Minute Wind Speed WSPD 5-day plot - 1-Minute Wind Direction WDIR
11:49 am 31.1 kts-
Previous observations
TIME
(HAST)
5-day plot - Wind Direction
WDIR
 
5-day plot - Wind Speed
WSPD
kts
5-day plot - Wind Gust
GST
kts
5-day plot - Wave Height
WVHT
ft
5-day plot - Dominant Wave Period
DPD
sec
5-day plot - Average Wave Period
APD
sec
5-day plot - Mean Wave Direction
MWD
 
5-day plot - Atmospheric Pressure
PRES
in
5-day plot - Pressure Tendency
PTDY
in
5-day plot - Air Temperature
ATMP
°F
5-day plot - Water Temperature
WTMP
°F
5-day plot - Dew Point
DEWP
°F
5-day plot - Salinity
SAL
psu
5-day plot - Visibility
VIS
nmi
5-day plot - Tide (above MLLW)
TIDE
ft
2024-04-17 11:40 amESE 29.1 38.9----29.86- 42.1 40.1 40.6---
2024-04-17 11:30 amESE 29.1 38.9----29.86- 42.1 40.1 40.6---
2024-04-17 11:20 amESE 29.1 38.9 22.0 128.6SSE29.86- 42.1 40.1 40.8---
2024-04-17 11:10 am SE 29.1 36.9 22.0-8.6SSE29.86- 41.9 40.1 40.6---
2024-04-17 11:00 amESE 31.1 38.9----29.86+0.01 41.9 40.1 40.6---
2024-04-17 10:50 amESE 31.1 38.9 21.0 128.7 SE29.86- 41.9 40.1 40.8---
2024-04-17 10:40 amESE 29.1 36.9 21.0-8.7 SE29.86- 41.7 40.1 40.6---
2024-04-17 10:30 amESE 29.1 38.9----29.86- 41.9 40.1 40.8---
2024-04-17 10:20 amESE 31.1 38.9 23.3 128.6SSE29.86- 41.9 40.1 40.6---
2024-04-17 10:10 amESE 31.1 38.9 23.3-8.6SSE29.86- 41.9 40.1 40.6---
2024-04-17 10:00 amESE 31.1 40.8----29.86+0.01 41.9 40.1 40.5---
2024-04-17 09:50 amESE 31.1 40.8 21.7 128.8SSE29.85- 42.1 40.1 40.6---
2024-04-17 09:40 amESE 29.1 40.8 21.7-8.8SSE29.85- 41.9 40.1 40.5---
2024-04-17 09:30 amESE 31.1 42.7----29.85- 41.9 40.1 40.3---
2024-04-17 09:20 amESE 31.1 40.8 20.0 138.3SSE29.85- 41.9 40.1 40.3---
2024-04-17 09:10 amESE 31.1 40.8 20.0-8.3SSE29.85- 42.1 40.1 40.5---
2024-04-17 09:00 amESE 33.0 42.7----29.85-0.01 42.1 40.1 40.3---
2024-04-17 08:50 amESE 31.1 42.7 22.0 128.6 SE29.85- 41.9 40.1 40.3---
2024-04-17 08:40 amESE 31.1 40.8 22.0-8.6 SE29.85- 41.9 40.1 40.3---
2024-04-17 08:30 amESE 31.1 40.8----29.85- 41.9 40.1 40.3---
2024-04-17 08:20 amESE 31.1 40.8 24.3 139.0SSE29.85- 41.9 40.1 40.3---
2024-04-17 08:10 amESE 31.1 40.8 24.3-9.0SSE29.85- 42.1 40.1 40.3---
2024-04-17 08:00 amESE 33.0 40.8----29.85-0.01 42.1 40.1 40.1---
2024-04-17 07:50 amESE 33.0 40.8 23.9 129.0SSE29.84- 41.9 40.1 39.9---
2024-04-17 07:40 amESE 33.0 46.6----29.84- 42.1 40.1 40.1---
2024-04-17 07:30 amESE 33.0 46.6----29.84- 42.1 40.1 40.1---
2024-04-17 07:20 amESE 31.1 40.8 21.7 118.6SSE29.85- 41.9 40.1 39.9---
2024-04-17 07:10 amESE 33.0 42.7 21.7-8.6SSE29.85- 41.9 40.1 39.7---
2024-04-17 07:00 amESE 33.0 42.7----29.84-0.05 41.9 40.1 39.7---
2024-04-17 06:50 amESE 33.0 44.7 23.3 118.8SSE29.85- 41.9 40.1 39.7---
2024-04-17 06:40 amESE 33.0 46.6 23.3-8.8SSE29.85- 41.9 40.1 39.9---
2024-04-17 06:30 amESE 31.1 42.7----29.85- 41.7 40.1 39.9---
2024-04-17 06:20 amESE 31.1 40.8 21.7 138.4SSE29.85- 41.5 40.1 39.7---
2024-04-17 06:10 amESE 33.0 42.7 21.7-8.4SSE29.85- 41.5 40.1 39.9---
2024-04-17 06:00 amESE 33.0 40.8----29.86-0.06 41.5 40.1 39.7---
2024-04-17 05:50 amESE 31.1 40.8 21.7 118.5 SE29.86- 41.5 40.1 39.7---
2024-04-17 05:40 amESE 33.0 40.8----29.86- 41.4 40.1 39.7---
2024-04-17 05:30 amESE 33.0 40.8----29.86- 41.4 40.1 39.7---
2024-04-17 05:20 amESE 33.0 40.8 20.0 118.3SSE29.86- 41.2 40.1 39.6---
2024-04-17 05:10 amESE 33.0 42.7 20.0-8.3SSE29.86- 41.2 40.1 39.6---
2024-04-17 05:00 amESE 31.1 38.9----29.86-0.10 41.2 40.1 39.4---
2024-04-17 04:50 amESE 33.0 38.9 22.6 128.6SSE29.87- 41.2 40.1 39.4---
2024-04-17 04:40 amESE 31.1 40.8----29.87- 41.0 40.1 39.2---
2024-04-17 04:30 amESE 31.1 42.7----29.88- 40.8 40.1 39.2---
2024-04-17 04:20 amESE 31.1 42.7 20.7 118.3SSE29.88- 40.8 40.1 39.2---
2024-04-17 04:10 amESE 33.0 40.8 20.7-8.3SSE29.88- 40.6 40.1 38.8---
2024-04-17 04:00 amESE 33.0 42.7----29.89-0.11 40.6 40.1 38.8---
2024-04-17 03:50 amESE 33.0 40.8 20.0 118.2SSE29.90- 40.6 40.1 38.7---
2024-04-17 03:40 amESE 31.1 40.8 20.0-8.2SSE29.90- 40.6 40.1 38.7---
2024-04-17 03:30 amESE 33.0 42.7----29.91- 40.5 40.1 38.5---
2024-04-17 03:20 amESE 31.1 40.8 21.0 118.4SSE29.91- 40.5 40.1 38.5---
2024-04-17 03:10 amESE 33.0 42.7 21.0-8.4SSE29.91- 40.5 40.1 38.3---
2024-04-17 03:00 amESE 33.0 40.8----29.92-0.11 40.5 40.1 38.3---
2024-04-17 02:50 amESE 33.0 42.7 22.0 118.4SSE29.93- 40.5 40.1 38.1---
2024-04-17 02:40 amESE 31.1 40.8 22.0-8.4SSE29.93- 40.5 40.1 38.1---
2024-04-17 02:30 amESE 31.1 38.9----29.94- 40.5 40.1 38.1---
2024-04-17 02:20 amESE 33.0 42.7 18.7 118.1SSE29.95- 40.3 40.1 37.9---
2024-04-17 02:10 amESE 31.1 40.8 18.7-8.1SSE29.96- 40.3 40.1 38.1---
2024-04-17 02:00 amESE 33.0 42.7----29.96-0.11 40.3 40.1 38.1---
2024-04-17 01:50 amESE 31.1 38.9 18.0 118.1SSE29.97- 40.1 40.1 37.9---
2024-04-17 01:40 amESE 31.1 42.7----29.97- 40.1 40.1 37.9---
2024-04-17 01:30 amESE 31.1 38.9----29.98- 40.1 40.1 37.9---
2024-04-17 01:20 amESE 31.1 42.7 18.4 107.9SSE29.98- 40.1 40.1 37.6---
2024-04-17 01:10 amESE 33.0 42.7 18.4-7.9SSE29.99- 40.3 40.1 37.2---
2024-04-17 01:00 amESE 31.1 38.9----30.00-0.12 40.3 40.1 37.0---
2024-04-17 12:50 amESE 33.0 42.7 17.1 97.7 SE30.00- 40.3 40.1 36.7---
2024-04-17 12:40 amESE 33.0 42.7----30.01- 40.5 40.1 36.3---
2024-04-17 12:30 amESE 31.1 44.7----30.01- 40.5 40.1 36.1---
2024-04-17 12:20 amESE 33.0 40.8 17.4 107.8SSE30.02- 40.5 40.1 36.0---
2024-04-17 12:10 amESE 31.1 40.8 17.4-7.8SSE30.03- 40.6 40.1 36.0---
2024-04-17 12:00 amESE 31.1 38.9----30.03-0.12 40.6 40.1 36.0---
2024-04-16 11:50 pmESE 31.1 42.7 16.4 107.7SSE30.04- 40.6 40.1 35.8---
2024-04-16 11:40 pmESE 31.1 40.8 16.4-7.7SSE30.05- 40.6 40.1 35.8---
2024-04-16 11:30 pmESE 29.1 40.8----30.05- 40.8 40.1 35.8---
2024-04-16 11:20 pmESE 31.1 40.8 17.1 117.7 S30.06- 40.8 40.1 35.4---
2024-04-16 11:10 pmESE 29.1 36.9 17.1-7.7 S30.07- 40.8 40.1 35.4---
2024-04-16 11:00 pmESE 29.1 38.9----30.07-0.10 40.8 40.1 35.4---
2024-04-16 10:50 pmESE 29.1 38.9 15.4 97.3 SE30.08- 40.8 40.1 35.2---
2024-04-16 10:40 pmESE 29.1 36.9 15.4-7.3 SE30.09- 40.8 40.1 35.2---
2024-04-16 10:30 pmESE 29.1 36.9----30.09- 40.8 40.1 35.2---
2024-04-16 10:20 pmESE 29.1 36.9 15.1 97.3 SE30.10- 40.8 40.1 35.4---
2024-04-16 10:10 pmESE 29.1 36.9 15.1-7.3 SE30.11- 40.8 40.1 35.2---
2024-04-16 10:00 pmESE 27.2 36.9----30.11-0.08 40.6 40.1 35.2---
2024-04-16 09:50 pmESE 27.2 36.9 15.1 107.3SSE30.12- 40.6 40.1 35.4---
2024-04-16 09:40 pmESE 27.2 35.0----30.13- 40.6 40.1 35.4---
2024-04-16 09:30 pmESE 27.2 35.0----30.13- 40.5 40.1 35.6---
2024-04-16 09:20 pmESE 29.1 36.9 14.4 107.2SSE30.13- 40.5 40.1 35.6---
2024-04-16 09:10 pmESE 27.2 35.0 14.4-7.2SSE30.15- 40.5 40.1 35.6---
2024-04-16 09:00 pmESE 29.1 36.9----30.15-0.08 40.5 40.1 35.4---
2024-04-16 08:50 pmESE 27.2 35.0 13.8 107.1SSE30.16- 40.5 40.1 35.4---
2024-04-16 08:40 pmESE 29.1 35.0 13.8-7.1SSE30.16- 40.5 40.1 35.4---
2024-04-16 08:30 pmESE 27.2 33.0----30.17- 40.5 40.1 35.8---
2024-04-16 08:20 pmESE 29.1 36.9 13.8 107.0SSE30.17- 40.3 40.1 35.8---
2024-04-16 08:10 pmESE 27.2 35.0 13.8-7.0SSE30.18- 40.3 40.1 36.0---
2024-04-16 08:00 pmESE 29.1 36.9----30.18-0.09 40.3 40.1 36.0---
2024-04-16 07:50 pmESE 27.2 35.0 13.1 86.8 SE30.19- 40.3 40.1 36.0---
2024-04-16 07:40 pmESE 27.2 35.0 13.1-6.8 SE30.19- 40.3 40.1 36.0---
2024-04-16 07:30 pmESE 29.1 35.0----30.19- 40.1 40.1 35.8---
2024-04-16 07:20 pmESE 29.1 36.9 11.8 86.5SSE30.19- 40.1 40.1 36.0---
2024-04-16 07:10 pmESE 27.2 35.0 11.8-6.5SSE30.20- 40.1 40.1 36.0---
2024-04-16 07:00 pmESE 27.2 35.0----30.20-0.10 40.1 40.1 36.0---
2024-04-16 06:50 pmESE 27.2 33.0 12.1 86.5 S30.21- 40.1 40.1 35.8---
2024-04-16 06:40 pmESE 27.2 35.0 12.1-6.5 S30.22- 40.1 40.1 35.8---
2024-04-16 06:30 pmESE 27.2 35.0----30.22- 40.1 40.1 35.6---
2024-04-16 06:20 pmESE 27.2 35.0 11.2 76.3 SE30.22- 40.1 40.1 35.6---
2024-04-16 06:10 pmESE 25.3 35.0 11.2-6.3 SE30.23- 40.1 40.1 35.6---
2024-04-16 06:00 pmESE 27.2 35.0----30.23-0.09 40.1 40.1 35.4---
2024-04-16 05:50 pmESE 27.2 36.9 11.2 86.3SSE30.24- 40.1 40.1 35.4---
2024-04-16 05:40 pmESE 27.2 33.0----30.24- 39.9 40.1 35.1---
2024-04-16 05:30 pmESE 25.3 31.1----30.25- 39.9 40.1 35.2---
2024-04-16 05:20 pmESE 25.3 35.0 10.5 86.1SSE30.25- 40.1 40.1 35.1---
2024-04-16 05:10 pmESE 27.2 35.0 10.5-6.1SSE30.25- 39.9 40.1 34.9---
2024-04-16 05:00 pmESE 25.3 33.0----30.26-0.11 40.1 40.1 35.1---
2024-04-16 04:50 pmESE 25.3 31.1 9.2 85.9SSE30.27- 39.9 40.1 34.7---
2024-04-16 04:40 pmESE 25.3 33.0----30.27- 39.9 40.1 34.7---
2024-04-16 04:30 pmESE 25.3 31.1----30.28- 39.9 40.1 34.9---
2024-04-16 04:20 pmESE 23.3 31.1 8.9 75.7SSE30.29- 40.1 40.1 35.1---
2024-04-16 04:10 pmESE 25.3 33.0 8.9-5.7SSE30.29- 40.1 40.1 34.3---
2024-04-16 04:00 pmESE 25.3 33.0----30.30-0.09 39.9 40.1 34.2---
2024-04-16 03:50 pmESE 23.3 31.1 8.9 75.7SSE30.30- 39.9 40.1 34.5---
2024-04-16 03:40 pmESE 23.3 31.1 8.9-5.7SSE30.31- 39.7 40.1 34.2---
2024-04-16 03:30 pmESE 25.3 31.1----30.31- 39.7 40.1 34.2---
2024-04-16 03:20 pmESE 25.3 33.0 8.9 75.7 SE30.32- 39.7 40.1 34.0---
2024-04-16 03:10 pmESE 25.3 33.0 8.9-5.7 SE30.32- 39.7 40.1 34.0---
2024-04-16 03:00 pmESE 23.3 29.1----30.33-0.08 39.6 40.1 34.0---
2024-04-16 02:50 pmESE 23.3 31.1 8.9 75.8SSE30.33- 39.7 40.1 34.2---
2024-04-16 02:40 pmESE 23.3 31.1 8.9-5.8SSE30.34- 39.6 40.1 33.6---
2024-04-16 02:30 pmESE 25.3 29.1----30.34- 39.6 40.1 33.4---
2024-04-16 02:20 pmESE 25.3 31.1 8.2 75.6SSE30.35- 39.4 40.1 33.1---
2024-04-16 02:10 pmESE 23.3 31.1 8.2-5.6SSE30.36- 39.6 40.1 33.4---
2024-04-16 02:00 pmESE 21.4 27.2----30.37-0.06 39.7 40.1 34.2---
2024-04-16 01:50 pmESE 23.3 31.1 7.9 75.5 SE30.37- 39.7 40.1 33.4---
2024-04-16 01:40 pmESE 23.3 29.1----30.37- 39.7 40.1 33.3---
2024-04-16 01:20 pmESE 23.3 29.1 6.9 65.2 SE30.38- 39.6 40.1 33.1---
2024-04-16 01:10 pmESE 23.3 27.2 6.9-5.2 SE30.38- 39.6 40.1 33.1---
2024-04-16 01:00 pmESE 23.3 27.2----30.38-0.05 39.6 40.1 32.9---
2024-04-16 12:50 pmESE 23.3 29.1 7.2 75.2SSE30.39- 39.6 40.1 32.5---
2024-04-16 12:40 pmESE 23.3 29.1 7.2-5.2SSE30.40- 39.6 40.1 32.7---
2024-04-16 12:30 pmESE 21.4 25.3----30.40- 39.6 40.1 33.1---
2024-04-16 12:20 pmESE 21.4 29.1 6.6 65.0 SE30.40- 39.6 40.1 32.9---
2024-04-16 12:10 pmESE 21.4 27.2 6.6-5.0 SE30.40- 39.6 40.1 33.1---
2024-04-16 12:00 pmESE 21.4 27.2----30.41-0.04 39.4 40.1 32.9---
2024-04-16 11:50 am SE 21.4 27.2 5.9 64.8 SE30.41- 39.6 40.1 32.4---

Detailed Wave Summary
for 46001 as of (11:40 am HAST)
2140 GMT on 04/17/2024:

These wave data are displayed in rounded times.

     

Click on the graph icon in the table below to see a time series plot of the last five days of that observation.

5-day plot - Significant Wave Height Significant Wave Height (WVHT): 20.0 ft
5-day plot - Swell Height Swell Height (SwH): 13.1 ft
5-day plot - Swell Period Swell Period (SwP): 11.4 sec
5-day plot - Swell Direction Swell Direction (SwD): SE
5-day plot - Wind Wave Height Wind Wave Height (WWH): 15.1 ft
5-day plot - Wind Wave Period Wind Wave Period (WWP): 7.7 sec
5-day plot - Wind Wave Direction Wind Wave Direction (WWD):ESE
5-day plot - Wave Steepness Wave Steepness (STEEPNESS): AVERAGE
5-day plot - Average Wave Period Average Wave Period (APD): 8.7 sec
Previous observations
TIME
(HAST)
5-day plot - Wave Height
WVHT
ft
5-day plot - Swell Height
SwH
ft
5-day plot - Swell Period
SwP
sec
5-day plot - Swell Direction
SwD
 
5-day plot - Wind Wave Height
WWH
ft
5-day plot - Wind Wave Period
WWP
sec
5-day plot - Wind Wave Direction
WWD
 
5-day plot - Wave Steepness
STEEPNESS
 
5-day plot - Average Wave Period
APD
sec
2024-04-17 11:10 am 22.0 0.0-- 22.0 12.1 SSE AVERAGE 8.6
2024-04-17 10:40 am 21.0 14.1 12.1 SE 15.7 8.3 ESE AVERAGE 8.7
2024-04-17 10:10 am 23.3 0.0-- 23.3 12.1 SSE AVERAGE 8.6
2024-04-17 09:40 am 21.7 15.7 12.1SSE 15.1 9.1 SE AVERAGE 8.8
2024-04-17 09:10 am 20.0 15.1 12.9SSE 13.1 6.7 ESE AVERAGE 8.3
2024-04-17 08:40 am 22.0 0.0-- 22.0 12.1 SE AVERAGE 8.6
2024-04-17 08:10 am 24.3 12.1 12.9SSE 21.3 7.1 ESE AVERAGE 9.0
2024-04-17 07:40 am 23.9 16.4 12.1SSE 17.4 9.1 SE AVERAGE 9.0
2024-04-17 07:10 am 21.7 13.5 11.4SSE 17.1 7.7 SE STEEP 8.6
2024-04-17 06:40 am 23.3 17.1 11.4SSE 15.7 7.1 SE STEEP 8.8
2024-04-17 06:10 am 21.7 8.9 12.9SSE 19.7 5.9 ESE AVERAGE 8.4
2024-04-17 05:40 am 21.7 14.1 11.4 SE 16.1 6.2 ESE STEEP 8.5
2024-04-17 05:10 am 20.0 13.5 11.4SSE 14.8 6.2 ESE AVERAGE 8.3
2024-04-17 04:40 am 22.6 0.0-- 22.6 12.1 SSE AVERAGE 8.6
2024-04-17 04:10 am 20.7 16.1 10.8SSE 13.1 5.9 ESE STEEP 8.3
2024-04-17 03:40 am 20.0 12.8 11.4SSE 15.4 9.1 SE AVERAGE 8.2
2024-04-17 03:10 am 21.0 18.0 10.8SSE 10.8 5.6 ESE STEEP 8.4
2024-04-17 02:40 am 22.0 0.0-- 22.0 10.8 SSE STEEP 8.4
2024-04-17 02:10 am 18.7 13.5 11.4SSE 12.8 5.9 ESE AVERAGE 8.1
2024-04-17 01:40 am 18.0 13.5 10.8SSE 12.1 8.3 ESE STEEP 8.1
2024-04-17 01:10 am 18.4 0.0-- 18.4 10.0 SSE STEEP 7.9
2024-04-17 12:40 am 17.1 13.5 9.1 SE 10.5 7.1 E STEEP 7.7
2024-04-17 12:10 am 17.4 0.0-- 17.4 10.0 SSE STEEP 7.8
2024-04-16 11:40 pm 16.4 13.1 10.0SSE 9.8 7.1 SE STEEP 7.7
2024-04-16 11:10 pm 17.1 2.6 19.0SSW 17.1 10.8 S STEEP 7.7
2024-04-16 10:40 pm 15.4 0.0-- 15.4 9.1 SE STEEP 7.3
2024-04-16 10:10 pm 15.1 0.0-- 15.1 9.1 SE STEEP 7.3
2024-04-16 09:40 pm 15.1 10.5 10.0SSE 10.5 5.6 ESE STEEP 7.3
2024-04-16 09:10 pm 14.4 0.0-- 14.4 10.0 SSE STEEP 7.2
2024-04-16 08:40 pm 13.8 7.5 10.0SSE 11.5 5.6 SE STEEP 7.1
2024-04-16 08:10 pm 13.8 7.5 10.0SSE 11.5 6.7 ESE STEEP 7.0
2024-04-16 07:40 pm 13.1 0.0-- 13.1 7.7 SEVERY_STEEP 6.8
2024-04-16 07:10 pm 11.8 2.3 12.9 S 11.5 8.3 SSE STEEP 6.5
2024-04-16 06:40 pm 12.1 0.0-- 12.1 8.3 S STEEP 6.5
2024-04-16 06:10 pm 11.2 2.3 12.9 SW 10.8 7.1 SEVERY_STEEP 6.3
2024-04-16 05:40 pm 11.2 2.0 12.9SSW 10.8 8.3 SSE STEEP 6.3
2024-04-16 05:10 pm 10.5 4.9 12.1 S 9.2 7.7 SSE STEEP 6.1
2024-04-16 04:40 pm 9.2 2.0 13.8 SW 9.2 7.7 SSE STEEP 5.9
2024-04-16 04:10 pm 8.9 2.3 14.8SSW 8.5 7.1 SSEVERY_STEEP 5.7
2024-04-16 03:40 pm 8.9 1.6 12.9 E 8.5 7.1 SSEVERY_STEEP 5.7
2024-04-16 03:10 pm 8.9 1.6 12.1 S 8.5 7.1 SEVERY_STEEP 5.7
2024-04-16 02:40 pm 8.9 1.3 12.9 S 8.5 7.1 SSEVERY_STEEP 5.8
2024-04-16 02:10 pm 8.2 1.0 12.9 S 8.2 7.1 SSE STEEP 5.6
2024-04-16 01:40 pm 7.9 1.3 13.8SSW 7.9 6.7 SEVERY_STEEP 5.5
2024-04-16 01:10 pm 6.9 1.3 14.8ENE 6.9 5.6 SEVERY_STEEP 5.2
2024-04-16 12:40 pm 7.2 1.3 12.9SSW 6.9 6.7 SSEVERY_STEEP 5.2
2024-04-16 12:10 pm 6.6 1.6 12.9SSW 6.6 5.9 SEVERY_STEEP 5.0

Plot of wave energy versus frequency (and period)